Volver al catálogo

FREJA

ActivoCienciaLEO
NORAD 22161·PAYLOAD·🇸🇪 Sweden

Lanzado Oct 6, 1992 desde Jiuquan Satellite Launch Center

Loading…

Próximos Pases (próximas 24 horas)

TLE

ActualizadoSource: Space-Track

Época: Sep 14, 2026, 06:08 UTC

1 22161U 92064A   26257.25563112  .00000094  00000-0  90697-4 0  9998
2 22161  63.0021  12.8779 0725287 248.6635 103.5515 13.32874755645836

Sigue FREJA en tiempo real con AllMySat

Download on the App Store